User: anonymous   Login
Location: Caltech
(34.1382°N, 118.1253°W)
Time: 04:08:26
(UTC-08:00)
Language:

CZ-2C R/B - Orbit

View from above orbital plane
View from above orbital plane
View from above satellite
View from above satellite

Ground track
Ground track

The orbit data is extracted from the following two-line orbital elements,

1 36089U 09061B   16042.64814553  .00000095  00000-0  34826-4 0  9992
2 36089  98.0576  60.3507 0083270 119.0842 350.8486 14.49542933330496
Epoch (UTC): 11 February 2016 15:33:19
Eccentricity: 0.0083270
inclination: 98.0576°
perigee height: 668 km
apogee height: 786 km
right ascension of ascending node: 60.3507°
argument of perigee: 119.0842°
revolutions per day: 14.49542933
mean anomaly at epoch: 350.8486°
orbit number at epoch: 33049

The dashed part of the orbit path shows where the satellite is in the earth's shadow,  

DLR